"Data set title: Gaging station water sample data. Usage: Event based table used with water chemistry collection from 01-Oct-2022 to 30-Sep-2023",,,,,,,,,,,,
,,,,,,,,,,,,,
"Site","Date","RecNum","SiteID","Flag_SiteID","LOGGERID","PROGID","VNOTCH_INST_0_0_01","Flag_VNOTCH_INST_0_0_01","SAMPLE_INST_0_0_01","Flag_SAMPLE_INST_0_0_01","STAGE_INST_0_0_01","Flag_STAGE_INST_0_0_01"
"","yyyy-MM-dd HH:mm:ss","count","","none","none","none","none","none","count","none","ft","none"
"nominal","datetime","nominal","data","code","nominal","nominal","data","code","data","code","data","code"
"GSWS02_116",2022-10-01 04:11:30,926,102.00,"",116,52499.0,0,"",22,"",0.0300,""
"GSWS02_116",2022-10-01 17:29:30,927,102.00,"",116,52499.0,0,"",23,"",0.0290,""
"GSWS02_116",2022-10-02 06:47:30,928,102.00,"",116,52499.0,0,"",24,"",0.0290,""
"GSWS02_116",2022-10-02 20:05:15,929,102.00,"",116,52499.0,0,"",25,"",0.0280,""
"GSWS02_116",2022-10-03 09:23:15,930,102.00,"",116,52499.0,0,"",26,"",0.0280,""
"GSWS02_116",2022-10-03 22:41:15,931,102.00,"",116,52499.0,0,"",27,"",0.0280,""
"GSWS02_116",2022-10-04 11:59:15,932,102.00,"",116,52499.0,0,"",28,"",0.0280,""
"GSWS02_116",2022-10-04 15:40:30,933,102.00,"",116,52499.0,0,"",29,"",0.0280,""
"GSWS02_116",2022-10-05 01:17:15,934,102.00,"",116,52499.0,0,"",30,"",0.0230,""
"GSWS02_116",2022-10-05 14:35:15,935,102.00,"",116,52499.0,0,"",31,"",0.0230,""
"GSWS02_116",2022-10-06 03:53:15,936,102.00,"",116,52499.0,0,"",32,"",0.0230,""
"GSWS02_116",2022-10-06 17:11:15,937,102.00,"",116,52499.0,0,"",33,"",0.0230,""
"GSWS02_116",2022-10-07 06:29:15,938,102.00,"",116,52499.0,0,"",34,"",0.0230,""
"GSWS02_116",2022-10-07 19:47:15,939,102.00,"",116,52499.0,0,"",35,"",0.0220,""
"GSWS02_116",2022-10-08 09:05:15,940,102.00,"",116,52499.0,0,"",36,"",0.0220,""
"GSWS02_116",2022-10-08 22:23:15,941,102.00,"",116,52499.0,0,"",37,"",0.0220,""
"GSWS02_116",2022-10-09 11:41:15,942,102.00,"",116,52499.0,0,"",38,"",0.0240,""
"GSWS02_116",2022-10-10 00:59:15,943,102.00,"",116,52499.0,0,"",39,"",0.0230,""
"GSWS02_116",2022-10-10 14:17:15,944,102.00,"",116,52499.0,0,"",40,"",0.0240,""
"GSWS02_116",2022-10-11 03:35:15,945,102.00,"",116,52499.0,0,"",41,"",0.0240,""
"GSWS02_116",2022-10-11 16:53:15,946,102.00,"",116,52499.0,0,"",1,"",0.0260,""
"GSWS02_116",2022-10-12 06:11:15,947,102.00,"",116,52499.0,0,"",2,"",0.0250,""
"GSWS02_116",2022-10-12 19:29:15,948,102.00,"",116,52499.0,0,"",3,"",0.0240,""
"GSWS02_116",2022-10-13 08:47:15,949,102.00,"",116,52499.0,0,"",4,"",0.0240,""
"GSWS02_116",2022-10-13 22:05:15,950,102.00,"",116,52499.0,0,"",5,"",0.0230,""
"GSWS02_116",2022-10-14 11:23:15,951,102.00,"",116,52499.0,0,"",6,"",0.0240,""
"GSWS02_116",2022-10-15 00:41:15,952,102.00,"",116,52499.0,0,"",7,"",0.0240,""
"GSWS02_116",2022-10-15 13:59:15,953,102.00,"",116,52499.0,0,"",8,"",0.0240,""
"GSWS02_116",2022-10-16 03:17:15,954,102.00,"",116,52499.0,0,"",9,"",0.0240,""
"GSWS02_116",2022-10-16 16:35:15,955,102.00,"",116,52499.0,0,"",10,"",0.0240,""
"GSWS02_116",2022-10-17 05:53:15,956,102.00,"",116,52499.0,0,"",11,"",0.0240,""
"GSWS02_116",2022-10-17 19:11:15,957,102.00,"",116,52499.0,0,"",12,"",0.0240,""
"GSWS02_116",2022-10-18 08:29:15,958,102.00,"",116,52499.0,0,"",13,"",0.0240,""
"GSWS02_116",2022-10-18 10:48:45,959,102.00,"",116,52499.0,0,"",14,"",0.0260,""
"GSWS02_116",2022-10-18 21:47:15,960,102.00,"",116,52499.0,0,"",15,"",0.0280,""
"GSWS02_116",2022-10-19 11:05:15,961,102.00,"",116,52499.0,0,"",16,"",0.0260,""
"GSWS02_116",2022-10-20 00:23:15,962,102.00,"",116,52499.0,0,"",17,"",0.0260,""
"GSWS02_116",2022-10-20 13:41:15,963,102.00,"",116,52499.0,0,"",18,"",0.0260,""
"GSWS02_116",2022-10-21 02:59:15,964,102.00,"",116,52499.0,0,"",19,"",0.0260,""
"GSWS02_116",2022-10-21 16:17:15,965,102.00,"",116,52499.0,0,"",20,"",0.0330,""
"GSWS02_116",2022-10-22 05:35:15,966,102.00,"",116,52499.0,0,"",21,"",0.0830,""
"GSWS02_116",2022-10-22 18:53:15,967,102.00,"",116,52499.0,0,"",22,"",0.0560,""
"GSWS02_116",2022-10-23 08:11:15,968,102.00,"",116,52499.0,0,"",23,"",0.0460,""
"GSWS02_116",2022-10-23 21:29:15,969,102.00,"",116,52499.0,0,"",24,"",0.0390,""
"GSWS02_116",2022-10-24 10:47:15,970,102.00,"",116,52499.0,0,"",25,"",0.1080,""
"GSWS02_116",2022-10-25 00:05:15,971,102.00,"",116,52499.0,0,"",26,"",0.0570,""
"GSWS02_116",2022-10-25 13:23:15,972,102.00,"",116,52499.0,0,"",27,"",0.0450,""
"GSWS02_116",2022-10-26 02:41:15,973,102.00,"",116,52499.0,0,"",28,"",0.1560,""
"GSWS02_116",2022-10-26 15:59:15,974,102.00,"",116,52499.0,0,"",29,"",0.0790,""
"GSWS02_116",2022-10-27 05:17:15,975,102.00,"",116,52499.0,0,"",30,"",0.0620,""
"GSWS02_116",2022-10-27 18:35:15,976,102.00,"",116,52499.0,0,"",31,"",0.0530,""
"GSWS02_116",2022-10-28 07:53:15,977,102.00,"",116,52499.0,0,"",32,"",0.0490,""
"GSWS02_116",2022-10-28 21:11:15,978,102.00,"",116,52499.0,0,"",33,"",0.0450,""
"GSWS02_116",2022-10-29 10:29:15,979,102.00,"",116,52499.0,0,"",34,"",0.0430,""
"GSWS02_116",2022-10-29 23:47:15,980,102.00,"",116,52499.0,0,"",35,"",0.0420,""
"GSWS02_116",2022-10-30 13:05:15,981,102.00,"",116,52499.0,0,"",36,"",0.0410,""
"GSWS02_116",2022-10-31 02:23:15,982,102.00,"",116,52499.0,0,"",37,"",0.0400,""
"GSWS02_116",2022-10-31 15:41:15,983,102.00,"",116,52499.0,0,"",38,"",0.0390,""
"GSWS02_116",2022-11-01 04:59:15,984,102.00,"",116,52499.0,0,"",39,"",0.0780,""
"GSWS02_116",2022-11-01 17:23:30,985,102.00,"",116,52499.0,0,"",40,"",0.0660,""
"GSWS02_116",2022-11-01 18:17:15,986,102.00,"",116,52499.0,0,"",41,"",0.0760,""
"GSWS02_116",2022-11-02 07:35:15,987,102.00,"",116,52499.0,0,"",42,"",0.0790,""
"GSWS02_116",2022-11-02 20:53:15,988,102.00,"",116,52499.0,0,"",43,"",0.0960,""
"GSWS02_116",2022-11-03 10:11:15,989,102.00,"",116,52499.0,0,"",44,"",0.0740,""
"GSWS02_116",2022-11-03 23:29:15,990,102.00,"",116,52499.0,0,"",45,"",0.0790,""
"GSWS02_116",2022-11-04 12:47:15,991,102.00,"",116,52499.0,0,"",46,"",0.2250,""
"GSWS02_116",2022-11-04 19:17:30,992,102.00,"",116,52499.0,0,"",47,"",0.4360,""
"GSWS02_116",2022-11-04 22:43:45,993,102.00,"",116,52499.0,0,"",48,"",0.5620,""
"GSWS02_116",2022-11-05 01:25:45,994,102.00,"",116,52499.0,0,"",49,"",0.6740,""
"GSWS02_116",2022-11-05 04:47:45,995,102.00,"",116,52499.0,0,"",50,"",0.5810,""
"GSWS02_116",2022-11-05 09:13:45,996,102.00,"",116,52499.0,0,"",51,"",0.4760,""
"GSWS02_116",2022-11-05 15:51:45,997,102.00,"",116,52499.0,0,"",52,"",0.3610,""
"GSWS02_116",2022-11-05 22:29:45,998,102.00,"",116,52499.0,0,"",53,"",0.3060,""
"GSWS02_116",2022-11-06 11:47:45,999,102.00,"",116,52499.0,0,"",54,"",0.2740,""
"GSWS02_116",2022-11-07 01:05:45,1000,102.00,"",116,52499.0,0,"",55,"",0.2450,""
"GSWS02_116",2022-11-07 14:23:45,1001,102.00,"",116,52499.0,0,"",56,"",0.2200,""
"GSWS02_116",2022-11-08 03:41:45,1002,102.00,"",116,52499.0,0,"",57,"",0.2020,""
"GSWS02_116",2022-11-08 03:42:00,1003,102.00,"",116,52499.0,0,"",58,"",0.2020,""
"GSWS02_116",2022-11-08 16:59:45,1004,102.00,"",116,52499.0,0,"",59,"",0.1880,""
"GSWS02_116",2022-11-09 06:17:45,1005,102.00,"",116,52499.0,0,"",60,"",0.1680,""
"GSWS02_116",2022-11-09 19:36:00,1006,102.00,"",116,52499.0,0,"",61,"",0.1500,""
"GSWS02_116",2022-11-10 08:54:15,1007,102.00,"",116,52499.0,0,"",62,"",0.1380,""
"GSWS02_116",2022-11-10 08:54:30,1008,102.00,"",116,52499.0,0,"",63,"",0.1380,""
"GSWS02_116",2022-11-10 08:54:45,1009,102.00,"",116,52499.0,0,"",64,"",0.1380,""
"GSWS02_116",2022-11-10 17:40:30,1010,102.00,"",116,52499.0,0,"",65,"",0.1320,""
"GSWS02_116",2022-11-10 22:11:45,1011,102.00,"",116,52499.0,0,"",66,"",0.1300,""
"GSWS02_116",2022-11-11 11:29:45,1012,102.00,"",116,52499.0,0,"",67,"",0.1220,""
"GSWS02_116",2022-11-12 00:47:45,1013,102.00,"",116,52499.0,0,"",68,"",0.1170,""
"GSWS02_116",2022-11-12 14:05:45,1014,102.00,"",116,52499.0,0,"",69,"",0.1100,""
"GSWS02_116",2022-11-13 03:23:45,1015,102.00,"",116,52499.0,0,"",70,"",0.1060,""
"GSWS02_116",2022-11-13 16:41:45,1016,102.00,"",116,52499.0,0,"",71,"",0.1020,""
"GSWS02_116",2022-11-14 05:59:45,1017,102.00,"",116,52499.0,0,"",72,"",0.0990,""
"GSWS02_116",2022-11-14 19:17:45,1018,102.00,"",116,52499.0,0,"",73,"",0.0950,""
"GSWS02_116",2022-11-15 08:35:45,1019,102.00,"",116,52499.0,0,"",74,"",0.0910,""
"GSWS02_116",2022-11-15 21:53:45,1020,102.00,"",116,52499.0,0,"",75,"",0.0880,""
"GSWS02_116",2022-11-16 11:11:45,1021,102.00,"",116,52499.0,0,"",76,"",0.0850,""
"GSWS02_116",2022-11-17 00:29:45,1022,102.00,"",116,52499.0,0,"",77,"",0.0810,""
"GSWS02_116",2022-11-17 11:38:15,1023,102.00,"",116,52499.0,0,"",78,"",0.0800,""
"GSWS02_116",2022-11-17 13:47:45,1024,102.00,"",116,52499.0,0,"",79,"",0.0800,""
"GSWS02_116",2022-11-18 03:05:45,1025,102.00,"",116,52499.0,0,"",80,"",0.0770,""
"GSWS02_116",2022-11-18 16:23:45,1026,102.00,"",116,52499.0,0,"",81,"",0.0760,""
"GSWS02_116",2022-11-19 05:41:45,1027,102.00,"",116,52499.0,0,"",82,"",0.0740,""
"GSWS02_116",2022-11-19 18:59:45,1028,102.00,"",116,52499.0,0,"",83,"",0.0730,""
"GSWS02_116",2022-11-20 08:17:45,1029,102.00,"",116,52499.0,0,"",84,"",0.0700,""
"GSWS02_116",2022-11-20 21:35:45,1030,102.00,"",116,52499.0,0,"",85,"",0.0700,""
"GSWS02_116",2022-11-21 10:53:45,1031,102.00,"",116,52499.0,0,"",86,"",0.0680,""
"GSWS02_116",2022-11-22 00:11:45,1032,102.00,"",116,52499.0,0,"",87,"",0.0670,""
"GSWS02_116",2022-11-22 11:31:15,1033,102.00,"",116,52499.0,0,"",88,"",0.0650,""
"GSWS02_116",2022-11-22 13:29:45,1034,102.00,"",116,52499.0,0,"",1,"",0.0710,""
"GSWS02_116",2022-11-23 02:47:45,1035,102.00,"",116,52499.0,0,"",2,"",0.0830,""
"GSWS02_116",2022-11-23 16:05:45,1036,102.00,"",116,52499.0,0,"",3,"",0.0760,""
"GSWS02_116",2022-11-24 05:23:45,1037,102.00,"",116,52499.0,0,"",4,"",0.0740,""
"GSWS02_116",2022-11-24 18:41:45,1038,102.00,"",116,52499.0,0,"",5,"",0.0720,""
"GSWS02_116",2022-11-25 07:59:45,1039,102.00,"",116,52499.0,0,"",6,"",0.0710,""
"GSWS02_116",2022-11-25 21:17:45,1040,102.00,"",116,52499.0,0,"",7,"",0.0760,""
"GSWS02_116",2022-11-26 10:35:45,1041,102.00,"",116,52499.0,0,"",8,"",0.0710,""
"GSWS02_116",2022-11-26 23:53:45,1042,102.00,"",116,52499.0,0,"",9,"",0.0700,""
"GSWS02_116",2022-11-27 13:11:45,1043,102.00,"",116,52499.0,0,"",10,"",0.1100,""
"GSWS02_116",2022-11-28 02:29:45,1044,102.00,"",116,52499.0,0,"",11,"",0.1460,""
"GSWS02_116",2022-11-28 15:47:30,1045,102.00,"",116,52499.0,0,"",12,"",0.1400,""
"GSWS02_116",2022-11-29 05:05:30,1046,102.00,"",116,52499.0,0,"",13,"",0.1230,""
"GSWS02_116",2022-11-29 18:23:30,1047,102.00,"",116,52499.0,0,"",14,"",0.1160,""
"GSWS02_116",2022-11-30 07:41:30,1048,102.00,"",116,52499.0,0,"",15,"",0.1560,""
"GSWS02_116",2022-11-30 20:59:30,1049,102.00,"",116,52499.0,0,"",16,"",0.2490,""
"GSWS02_116",2022-12-01 10:17:30,1050,102.00,"",116,52499.0,0,"",17,"",0.2160,""
"GSWS02_116",2022-12-01 23:35:30,1051,102.00,"",116,52499.0,0,"",18,"",0.1840,""
"GSWS02_116",2022-12-02 12:53:30,1052,102.00,"",116,52499.0,0,"",19,"",0.1610,""
"GSWS02_116",2022-12-03 02:11:30,1053,102.00,"",116,52499.0,0,"",20,"",0.1440,""
"GSWS02_116",2022-12-03 15:29:30,1054,102.00,"",116,52499.0,0,"",21,"",0.1340,""
"GSWS02_116",2022-12-04 04:47:30,1055,102.00,"",116,52499.0,0,"",22,"",0.1250,""
"GSWS02_116",2022-12-04 18:05:30,1056,102.00,"",116,52499.0,0,"",23,"",0.1200,""
"GSWS02_116",2022-12-05 07:23:30,1057,102.00,"",116,52499.0,0,"",24,"",0.1140,""
"GSWS02_116",2022-12-06 15:26:00,1058,102.00,"",116,52499.0,0,"",25,"",0.1090,""
"GSWS02_116",2022-12-06 15:29:30,1059,102.00,"",116,52499.0,0,"",26,"",0.1090,""
"GSWS02_116",2022-12-06 23:17:30,1060,102.00,"",116,52499.0,0,"",27,"",0.1080,""
"GSWS02_116",2022-12-07 12:35:30,1061,102.00,"",116,52499.0,0,"",28,"",0.1060,""
"GSWS02_116",2022-12-08 01:53:30,1062,102.00,"",116,52499.0,0,"",29,"",0.1040,""
"GSWS02_116",2022-12-08 15:11:30,1063,102.00,"",116,52499.0,0,"",30,"",0.1170,""
"GSWS02_116",2022-12-09 04:29:30,1064,102.00,"",116,52499.0,0,"",31,"",0.1210,""
"GSWS02_116",2022-12-09 17:47:30,1065,102.00,"",116,52499.0,0,"",32,"",0.1240,""
"GSWS02_116",2022-12-10 07:05:30,1066,102.00,"",116,52499.0,0,"",33,"",0.2040,""
"GSWS02_116",2022-12-10 20:23:30,1067,102.00,"",116,52499.0,0,"",34,"",0.2170,""
"GSWS02_116",2022-12-11 09:41:30,1068,102.00,"",116,52499.0,0,"",35,"",0.2190,""
"GSWS02_116",2022-12-11 22:59:30,1069,102.00,"",116,52499.0,0,"",36,"",0.2130,""
"GSWS02_116",2022-12-12 12:17:30,1070,102.00,"",116,52499.0,0,"",37,"",0.2000,""
"GSWS02_116",2022-12-12 16:03:30,1071,102.00,"",116,52499.0,0,"",38,"",0.1960,""
"GSWS02_116",2022-12-13 01:35:30,1072,102.00,"",116,52499.0,0,"",1,"",0.1880,""
"GSWS02_116",2022-12-13 14:53:30,1073,102.00,"",116,52499.0,0,"",2,"",0.1770,""
"GSWS02_116",2022-12-14 04:11:30,1074,102.00,"",116,52499.0,0,"",3,"",0.1650,""
"GSWS02_116",2022-12-14 17:29:30,1075,102.00,"",116,52499.0,0,"",4,"",0.1550,""
"GSWS02_116",2022-12-15 06:47:30,1076,102.00,"",116,52499.0,0,"",5,"",0.1460,""
"GSWS02_116",2022-12-15 20:05:30,1077,102.00,"",116,52499.0,0,"",6,"",0.1380,""
"GSWS02_116",2022-12-16 09:23:30,1078,102.00,"",116,52499.0,0,"",7,"",0.1320,""
"GSWS02_116",2022-12-16 22:41:30,1079,102.00,"",116,52499.0,0,"",8,"",0.1270,""
"GSWS02_116",2022-12-17 11:59:30,1080,102.00,"",116,52499.0,0,"",9,"",0.1220,""
"GSWS02_116",2022-12-18 01:17:30,1081,102.00,"",116,52499.0,0,"",10,"",0.1180,""
"GSWS02_116",2022-12-18 14:35:30,1082,102.00,"",116,52499.0,0,"",11,"",0.1140,""
"GSWS02_116",2022-12-19 03:53:30,1083,102.00,"",116,52499.0,0,"",12,"",0.1120,""
"GSWS02_116",2022-12-19 17:11:30,1084,102.00,"",116,52499.0,0,"",13,"",0.1080,""
"GSWS02_116",2022-12-20 06:29:30,1085,102.00,"",116,52499.0,0,"",14,"",0.1060,""
"GSWS02_116",2022-12-20 19:47:30,1086,102.00,"",116,52499.0,0,"",15,"",0.2100,""
"GSWS02_116",2022-12-21 09:05:30,1087,102.00,"",116,52499.0,0,"",16,"",0.2040,""
"GSWS02_116",2022-12-21 22:23:30,1088,102.00,"",116,52499.0,0,"",17,"",0.2070,""
"GSWS02_116",2022-12-22 11:41:30,1089,102.00,"",116,52499.0,0,"",18,"",0.1980,""
"GSWS02_116",2022-12-23 00:59:30,1090,102.00,"",116,52499.0,0,"",19,"",0.1920,""
"GSWS02_116",2022-12-23 14:17:30,1091,102.00,"",116,52499.0,0,"",20,"",0.2170,""
"GSWS02_116",2022-12-24 03:35:30,1092,102.00,"",116,52499.0,0,"",21,"",0.2450,""
"GSWS02_116",2022-12-24 13:11:30,1093,102.00,"",116,52499.0,0,"",22,"",0.2960,""
"GSWS02_116",2022-12-24 19:49:30,1094,102.00,"",116,52499.0,0,"",23,"",0.3860,""
"GSWS02_116",2022-12-25 02:27:30,1095,102.00,"",116,52499.0,0,"",24,"",0.4030,""
"GSWS02_116",2022-12-25 09:05:30,1096,102.00,"",116,52499.0,0,"",25,"",0.4110,""
"GSWS02_116",2022-12-25 15:43:30,1097,102.00,"",116,52499.0,0,"",26,"",0.3880,""
"GSWS02_116",2022-12-25 22:21:30,1098,102.00,"",116,52499.0,0,"",27,"",0.3640,""
"GSWS02_116",2022-12-26 04:59:30,1099,102.00,"",116,52499.0,0,"",28,"",0.3410,""
"GSWS02_116",2022-12-26 11:37:30,1100,102.00,"",116,52499.0,0,"",29,"",0.3200,""
"GSWS02_116",2022-12-26 18:15:30,1101,102.00,"",116,52499.0,0,"",30,"",0.3160,""
"GSWS02_116",2022-12-27 00:53:30,1102,102.00,"",116,52499.0,0,"",31,"",0.3430,""
"GSWS02_116",2022-12-27 07:31:30,1103,102.00,"",116,52499.0,0,"",32,"",0.3790,""
"GSWS02_116",2022-12-27 13:15:00,1104,102.00,"",116,52499.0,0,"",33,"",0.4350,""
"GSWS02_116",2022-12-27 17:41:00,1105,102.00,"",116,52499.0,0,"",34,"",0.4740,""
"GSWS02_116",2022-12-27 22:07:00,1106,102.00,"",116,52499.0,0,"",35,"",0.5180,""
"GSWS02_116",2022-12-28 02:33:00,1107,102.00,"",116,52499.0,0,"",36,"",0.5240,""
"GSWS02_116",2022-12-28 06:59:00,1108,102.00,"",116,52499.0,0,"",37,"",0.5120,""
"GSWS02_116",2022-12-28 11:25:00,1109,102.00,"",116,52499.0,0,"",38,"",0.4950,""
"GSWS02_116",2022-12-28 15:51:00,1110,102.00,"",116,52499.0,0,"",39,"",0.4770,""
"GSWS02_116",2022-12-28 20:17:00,1111,102.00,"",116,52499.0,0,"",40,"",0.4540,""
"GSWS02_116",2022-12-29 00:43:00,1112,102.00,"",116,52499.0,0,"",41,"",0.4350,""
"GSWS02_116",2022-12-29 07:21:00,1113,102.00,"",116,52499.0,0,"",42,"",0.4140,""
"GSWS02_116",2022-12-29 13:59:00,1114,102.00,"",116,52499.0,0,"",43,"",0.4310,""
"GSWS02_116",2022-12-29 20:37:00,1115,102.00,"",116,52499.0,0,"",44,"",0.4240,""
"GSWS02_116",2022-12-30 01:03:00,1116,102.00,"",116,52499.0,0,"",45,"",0.5060,""
"GSWS02_116",2022-12-30 05:29:00,1117,102.00,"",116,52499.0,0,"",46,"",0.5020,""
"GSWS02_116",2022-12-30 09:55:00,1118,102.00,"",116,52499.0,0,"",47,"",0.5000,""
"GSWS02_116",2022-12-30 14:21:00,1119,102.00,"",116,52499.0,0,"",48,"",0.4940,""
"GSWS02_116",2022-12-30 18:47:00,1120,102.00,"",116,52499.0,0,"",49,"",0.5050,""
"GSWS02_116",2022-12-30 23:13:00,1121,102.00,"",116,52499.0,0,"",50,"",0.4830,""
"GSWS02_116",2022-12-31 03:39:00,1122,102.00,"",116,52499.0,0,"",51,"",0.4720,""
"GSWS02_116",2022-12-31 08:05:00,1123,102.00,"",116,52499.0,0,"",52,"",0.4480,""
"GSWS02_116",2022-12-31 14:43:00,1124,102.00,"",116,52499.0,0,"",53,"",0.4240,""
"GSWS02_116",2022-12-31 21:21:00,1125,102.00,"",116,52499.0,0,"",54,"",0.3950,""
"GSWS02_116",2023-01-01 03:59:00,1126,102.00,"",116,52499.0,0,"",55,"",0.3680,""
"GSWS02_116",2023-01-01 10:37:00,1127,102.00,"",116,52499.0,0,"",56,"",0.3450,""
"GSWS02_116",2023-01-01 17:15:00,1128,102.00,"",116,52499.0,0,"",57,"",0.3240,""
"GSWS02_116",2023-01-01 23:53:00,1129,102.00,"",116,52499.0,0,"",58,"",0.3050,""
"GSWS02_116",2023-01-02 13:11:00,1130,102.00,"",116,52499.0,0,"",59,"",0.2760,""
"GSWS02_116",2023-01-03 02:29:00,1131,102.00,"",116,52499.0,0,"",60,"",0.2530,""
"GSWS02_116",2023-01-03 15:47:00,1132,102.00,"",116,52499.0,0,"",1,"",0.2370,""
"GSWS02_116",2023-01-04 05:05:00,1133,102.00,"",116,52499.0,0,"",2,"",0.2290,""
"GSWS02_116",2023-01-04 18:23:00,1134,102.00,"",116,52499.0,0,"",3,"",0.2230,""
"GSWS02_116",2023-01-05 07:41:00,1135,102.00,"",116,52499.0,0,"",4,"",0.2140,""
"GSWS02_116",2023-01-05 20:59:00,1136,102.00,"",116,52499.0,0,"",5,"",0.2070,""
"GSWS02_116",2023-01-06 10:17:00,1137,102.00,"",116,52499.0,0,"",6,"",0.1950,""
"GSWS02_116",2023-01-06 23:35:00,1138,102.00,"",116,52499.0,0,"",7,"",0.1880,""
"GSWS02_116",2023-01-07 12:53:00,1139,102.00,"",116,52499.0,0,"",8,"",0.1830,""
"GSWS02_116",2023-01-08 02:11:00,1140,102.00,"",116,52499.0,0,"",9,"",0.1800,""
"GSWS02_116",2023-01-08 15:29:00,1141,102.00,"",116,52499.0,0,"",10,"",0.1710,""
"GSWS02_116",2023-01-09 04:47:00,1142,102.00,"",116,52499.0,0,"",11,"",0.1690,""
"GSWS02_116",2023-01-09 18:05:00,1143,102.00,"",116,52499.0,0,"",12,"",0.1660,""
"GSWS02_116",2023-01-10 07:23:00,1144,102.00,"",116,52499.0,0,"",13,"",0.1590,""
"GSWS02_116",2023-01-10 20:41:00,1145,102.00,"",116,52499.0,0,"",14,"",0.1540,""
"GSWS02_116",2023-01-11 09:59:00,1146,102.00,"",116,52499.0,0,"",15,"",0.1480,""
"GSWS02_116",2023-01-11 23:17:00,1147,102.00,"",116,52499.0,0,"",16,"",0.1790,""
"GSWS02_116",2023-01-12 12:35:00,1148,102.00,"",116,52499.0,0,"",17,"",0.1600,""
"GSWS02_116",2023-01-13 01:53:00,1149,102.00,"",116,52499.0,0,"",18,"",0.1570,""
"GSWS02_116",2023-01-13 15:11:00,1150,102.00,"",116,52499.0,0,"",19,"",0.1530,""
"GSWS02_116",2023-01-14 04:29:00,1151,102.00,"",116,52499.0,0,"",20,"",0.1650,""
"GSWS02_116",2023-01-14 17:47:00,1152,102.00,"",116,52499.0,0,"",21,"",0.1620,""
"GSWS02_116",2023-01-15 07:05:00,1153,102.00,"",116,52499.0,0,"",22,"",0.1640,""
"GSWS02_116",2023-01-15 20:23:00,1154,102.00,"",116,52499.0,0,"",23,"",0.1560,""
"GSWS02_116",2023-01-16 09:41:00,1155,102.00,"",116,52499.0,0,"",24,"",0.1520,""
"GSWS02_116",2023-01-16 22:59:00,1156,102.00,"",116,52499.0,0,"",25,"",0.1460,""
"GSWS02_116",2023-01-17 12:17:00,1157,102.00,"",116,52499.0,0,"",26,"",0.1410,""
"GSWS02_116",2023-01-18 01:35:00,1158,102.00,"",116,52499.0,0,"",27,"",0.1370,""
"GSWS02_116",2023-01-18 14:53:00,1159,102.00,"",116,52499.0,0,"",28,"",0.1430,""
"GSWS02_116",2023-01-19 04:11:00,1160,102.00,"",116,52499.0,0,"",29,"",0.1330,""
"GSWS02_116",2023-01-19 17:29:00,1161,102.00,"",116,52499.0,0,"",30,"",0.1290,""
"GSWS02_116",2023-01-20 06:47:00,1162,102.00,"",116,52499.0,0,"",31,"",0.1260,""
"GSWS02_116",2023-01-20 20:05:00,1163,102.00,"",116,52499.0,0,"",32,"",0.1230,""
"GSWS02_116",2023-01-21 09:23:00,1164,102.00,"",116,52499.0,0,"",33,"",0.1200,""
"GSWS02_116",2023-01-21 22:41:00,1165,102.00,"",116,52499.0,0,"",34,"",0.1250,""
"GSWS02_116",2023-01-22 11:59:00,1166,102.00,"",116,52499.0,0,"",35,"",0.1200,""
"GSWS02_116",2023-01-23 01:17:00,1167,102.00,"",116,52499.0,0,"",36,"",0.1180,""
"GSWS02_116",2023-01-23 14:35:00,1168,102.00,"",116,52499.0,0,"",37,"",0.1150,""
"GSWS02_116",2023-01-24 03:53:00,1169,102.00,"",116,52499.0,0,"",38,"",0.1120,""
"GSWS02_116",2023-01-24 14:28:30,1170,102.00,"",116,52499.0,0,"",39,"",0.1100,""
"GSWS02_116",2023-01-24 14:42:15,1171,102.00,"",116,52499.0,0,"",40,"",0.1100,""
"GSWS02_116",2023-01-24 17:11:00,1172,102.00,"",116,52499.0,0,"",1,"",0.1100,""
"GSWS02_116",2023-01-25 06:29:00,1173,102.00,"",116,52499.0,0,"",2,"",0.1080,""
"GSWS02_116",2023-01-25 19:47:00,1174,102.00,"",116,52499.0,0,"",3,"",0.1070,""
"GSWS02_116",2023-01-26 09:05:00,1175,102.00,"",116,52499.0,0,"",4,"",0.1060,""
"GSWS02_116",2023-01-26 22:23:00,1176,102.00,"",116,52499.0,0,"",5,"",0.1040,""
"GSWS02_116",2023-01-27 11:41:00,1177,102.00,"",116,52499.0,0,"",6,"",0.1050,""
"GSWS02_116",2023-01-28 00:59:00,1178,102.00,"",116,52499.0,0,"",7,"",0.1040,""
"GSWS02_116",2023-01-28 14:17:00,1179,102.00,"",116,52499.0,0,"",8,"",0.1040,""
"GSWS02_116",2023-01-29 03:35:00,1180,102.00,"",116,52499.0,0,"",9,"",0.1010,""
"GSWS02_116",2023-01-31 22:05:00,1181,102.00,"",116,52499.0,0,"",10,"",0.0960,""
"GSWS02_116",2023-02-01 11:23:00,1182,102.00,"",116,52499.0,0,"",11,"",0.0950,""
"GSWS02_116",2023-02-02 00:41:00,1183,102.00,"",116,52499.0,0,"",12,"",0.0950,""
"GSWS02_116",2023-02-02 13:59:00,1184,102.00,"",116,52499.0,0,"",13,"",0.0940,""
"GSWS02_116",2023-02-03 03:17:00,1185,102.00,"",116,52499.0,0,"",14,"",0.0940,""
"GSWS02_116",2023-02-03 16:35:00,1186,102.00,"",116,52499.0,0,"",15,"",0.0940,""
"GSWS02_116",2023-02-04 05:53:00,1187,102.00,"",116,52499.0,0,"",16,"",0.0930,""
"GSWS02_116",2023-02-04 19:11:00,1188,102.00,"",116,52499.0,0,"",17,"",0.0910,""
"GSWS02_116",2023-02-05 08:29:00,1189,102.00,"",116,52499.0,0,"",18,"",0.1080,""
"GSWS02_116",2023-02-05 21:47:00,1190,102.00,"",116,52499.0,0,"",19,"",0.1180,""
"GSWS02_116",2023-02-06 11:05:00,1191,102.00,"",116,52499.0,0,"",20,"",0.1040,""
"GSWS02_116",2023-02-07 00:23:00,1192,102.00,"",116,52499.0,0,"",21,"",0.1010,""
"GSWS02_116",2023-02-07 13:41:00,1193,102.00,"",116,52499.0,0,"",22,"",0.1260,""
"GSWS02_116",2023-02-08 02:59:00,1194,102.00,"",116,52499.0,0,"",23,"",0.1600,""
"GSWS02_116",2023-02-08 16:17:00,1195,102.00,"",116,52499.0,0,"",24,"",0.1510,""
"GSWS02_116",2023-02-09 05:35:00,1196,102.00,"",116,52499.0,0,"",25,"",0.1410,""
"GSWS02_116",2023-02-09 18:53:00,1197,102.00,"",116,52499.0,0,"",26,"",0.1330,""
"GSWS02_116",2023-02-10 08:11:00,1198,102.00,"",116,52499.0,0,"",27,"",0.1290,""
"GSWS02_116",2023-02-10 21:29:00,1199,102.00,"",116,52499.0,0,"",28,"",0.1250,""
"GSWS02_116",2023-02-11 10:47:00,1200,102.00,"",116,52499.0,0,"",29,"",0.1200,""
"GSWS02_116",2023-02-12 00:05:00,1201,102.00,"",116,52499.0,0,"",30,"",0.1170,""
"GSWS02_116",2023-02-12 13:23:00,1202,102.00,"",116,52499.0,0,"",31,"",0.1140,""
"GSWS02_116",2023-02-13 02:41:00,1203,102.00,"",116,52499.0,0,"",32,"",0.1120,""
"GSWS02_116",2023-02-13 14:32:15,1204,102.00,"",116,52499.0,0,"",33,"",0.1160,""
"GSWS02_116",2023-02-13 16:05:00,1205,102.00,"",116,52499.0,0,"",1,"",0.1200,""
"GSWS02_116",2023-02-14 05:23:00,1206,102.00,"",116,52499.0,0,"",2,"",0.1100,""
"GSWS02_116",2023-02-14 18:41:00,1207,102.00,"",116,52499.0,0,"",3,"",0.1090,""
"GSWS02_116",2023-02-15 07:59:00,1208,102.00,"",116,52499.0,0,"",4,"",0.1060,""
"GSWS02_116",2023-02-15 21:17:00,1209,102.00,"",116,52499.0,0,"",5,"",0.1040,""
"GSWS02_116",2023-02-16 10:35:00,1210,102.00,"",116,52499.0,0,"",6,"",0.1020,""
"GSWS02_116",2023-02-16 23:53:00,1211,102.00,"",116,52499.0,0,"",7,"",0.1040,""
"GSWS02_116",2023-02-17 13:11:00,1212,102.00,"",116,52499.0,0,"",8,"",0.0990,""